[[{"header":{"parameterUnit":"m.s-1","parameterCategory":1,"la1":30.2991,"la2":30.254,"lo1":-89.0895,"lo2":-89.0444,"dy":0.0017,"dx":0.0017,"nx":28,"ny":28,"refTime":"2023-10-11T03:00:00:Z","depth":0,"parameterNumber":2,"parameterNumberName":"U-component_of_WINDS"},"data":[0,0,0,0,0,0,0,0,0,0,0,0,0,0,0,0,0,0,0,0,0,0,0,0,0,0,0,0,0,0,0,0,0,0,0,0,0,0,0,0,0,0,0,0,0,0,0,0,0,0,0,0,0,0,0,0,0,0,-1.3386,-1.3386,0,-1.3386,-1.3386,-1.3386,-1.3332,-1.333,-1.3329,-1.3327,-1.3329,-1.333,-1.3332,0,0,0,0,0,0,0,0,0,0,0,0,0,-1.3339,-1.3341,-1.3386,-1.3386,-1.3386,-1.3386,-1.3386,-1.3386,-1.3332,-1.333,-1.3328,-1.3327,-1.3328,-1.333,-1.3332,0,0,0,0,0,0,0,0,0,0,0,0,0,-1.3352,-1.3341,-1.3386,-1.3359,-1.3357,-1.3386,-1.3386,-1.3386,-1.3332,-1.333,-1.3328,-1.3326,-1.3328,-1.333,-1.3332,-1.3388,0,0,-1.3338,-1.3339,0,0,0,0,0,0,0,0,-1.3351,-1.3354,-1.3363,-1.3361,-1.3358,-1.3357,-1.337,-1.3387,-1.3333,-1.3342,-1.3327,-1.3325,-1.334,-1.3341,-1.3346,-1.3388,-1.3388,-1.3338,-1.334,-1.3341,-1.3341,0,0,0,0,0,0,0,-1.335,-1.3353,-1.3386,-1.3363,-1.336,-1.3347,-1.3346,-1.3373,-1.3353,-1.3341,-1.3337,-1.3337,-1.3338,-1.3344,-1.3345,-1.3388,-1.3338,-1.334,-1.3341,-1.3342,-1.3477,-1.3479,0,0,0,0,0,0,-1.3353,-1.3353,-1.3386,-1.3386,-1.3349,-1.335,-1.3349,-1.3359,-1.3352,-1.3349,-1.3339,-1.3335,-1.3341,-1.3343,-1.3345,-1.341,-1.3341,-1.3342,-1.3344,-1.3474,-1.3477,-1.348,0,0,0,0,0,0,-1.3352,-1.3357,-1.3386,-1.3369,-1.3371,-1.3353,-1.3365,-1.3361,-1.3366,-1.3351,-1.3348,-1.3349,-1.334,-1.3342,-1.3378,-1.341,-1.3343,-1.3345,-1.3472,-1.3475,-1.3478,-1.3542,0,0,0,0,0,0,-1.3351,-1.3357,-1.3378,-1.3369,-1.3372,-1.3419,-1.3367,-1.3362,-1.337,-1.3364,-1.3359,-1.3356,-1.3338,-1.3375,-1.338,-1.3411,-1.3347,-1.3469,-1.3473,-1.3477,-1.3537,-1.3547,-1.3556,0,0,0,0,0,-1.335,-1.3396,-1.3379,-1.3383,-1.3398,-1.3421,-1.3422,-1.34,-1.3373,-1.3394,-1.3384,-1.3357,-1.3405,-1.3379,-1.3384,-1.3417,-1.3466,-1.3472,-1.3477,-1.3532,-1.3545,-1.3555,0,0,0,0,0,0,-1.3409,-1.3394,-1.3375,-1.342,-1.3422,-1.3411,-1.3437,-1.3414,-1.3424,-1.3419,-1.3391,-1.339,-1.343,-1.3427,-1.3398,-1.3471,-1.3431,-1.3438,-1.3471,-1.3483,-1.3492,-1.3493,-1.3349,0,0,0,0,0,-1.3427,-1.3446,-1.3432,-1.3473,-1.3475,-1.3456,-1.3465,-1.3448,-1.3449,-1.3449,-1.3442,-1.3445,-1.3461,-1.3472,-1.3485,-1.3536,-1.3534,-1.3561,-1.357,-1.3578,-1.3584,-1.361,-1.3622,-1.3497,-1.3497,-1.3497,0,0,-1.3465,-1.3459,-1.3473,-1.3485,-1.3484,-1.3505,-1.3457,-1.3481,-1.3496,-1.3453,-1.3486,-1.3481,-1.3482,-1.3525,-1.3544,-1.3524,-1.3618,-1.3585,-1.3591,-1.3593,-1.3617,-1.3629,-1.364,-1.35,-1.35,-1.3499,0,0,-1.3544,-1.3542,-1.3575,-1.3575,-1.3575,-1.3562,-1.357,-1.3563,-1.3558,-1.3591,-1.3559,-1.3576,-1.3604,-1.3606,-1.3611,-1.3691,-1.3666,-1.3696,-1.3746,-1.3772,-1.3782,-1.379,-1.3819,-1.383,-1.3702,-1.3702,-1.3702,0,-1.3591,-1.3621,-1.3595,-1.3621,-1.3628,-1.3589,-1.3623,-1.3625,-1.3629,-1.3634,-1.3612,-1.3646,-1.3643,-1.3686,-1.3706,-1.3711,-1.372,-1.3697,-1.3782,-1.3791,-1.3798,-1.3825,-1.3836,-1.3706,-1.3705,-1.3705,-1.3705,0,-1.3679,-1.37,-1.3727,-1.3732,-1.3741,-1.3771,-1.375,-1.3763,-1.3745,-1.3734,-1.3768,-1.3764,-1.3776,-1.3785,-1.3768,-1.3826,-1.3813,-1.3787,-1.3747,-1.3814,-1.3839,-1.3849,-1.3711,-1.371,-1.3709,-1.3708,0,0,-1.3796,-1.3786,-1.3796,-1.3798,-1.3794,-1.381,-1.3838,-1.385,-1.3861,-1.3865,-1.3889,-1.3913,-1.3888,-1.3894,-1.3876,-1.3899,-1.3963,-1.387,-1.3869,-1.3887,-1.4026,-1.4047,-1.4059,-1.3946,-1.3948,-1.3949,-1.4026,0,-1.3873,-1.392,-1.3898,-1.3948,-1.3967,-1.393,-1.3955,-1.3956,-1.3947,-1.3962,-1.3952,-1.397,-1.3936,-1.3939,-1.396,-1.3951,-1.399,-1.3945,-1.3968,-1.3969,-1.3969,-1.4072,-1.4093,-1.4166,-1.4036,-1.4038,-1.4039,0,-1.3969,-1.3977,-1.4028,-1.4021,-1.4028,-1.4051,-1.406,-1.4074,-1.4075,-1.4066,-1.4072,-1.405,-1.4077,-1.4037,-1.4074,-1.4044,-1.4052,-1.4049,-1.4051,-1.4053,-1.4008,-1.4076,-1.4189,-1.42,-1.4054,-1.4053,-1.4052,0,-1.4049,-1.4073,-1.4106,-1.4109,-1.4102,-1.4118,-1.4116,-1.4114,-1.4122,-1.413,-1.4135,-1.4146,-1.4152,-1.4161,-1.4142,-1.4115,-1.4183,-1.4141,-1.4177,-1.4178,-1.4193,-1.4193,-1.4309,-1.4198,-1.4198,-1.4198,-1.4198,0,-1.4138,-1.4171,-1.4142,-1.4163,-1.4199,-1.4174,-1.421,-1.4204,-1.4203,-1.4222,-1.4191,-1.421,-1.4183,-1.42,-1.4185,-1.4218,-1.4221,-1.4216,-1.4212,-1.4219,-1.422,-1.4224,-1.4219,-1.4201,-1.42,-1.42,-1.4199,0,-1.4234,-1.4216,-1.4251,-1.424,-1.4239,-1.4266,-1.4257,-1.4276,-1.4265,-1.429,-1.4294,-1.4277,-1.4294,-1.4276,-1.4293,-1.4283,-1.4328,-1.4316,-1.4328,-1.4324,-1.4362,-1.4359,-1.4485,-1.45,-1.438,-1.4381,-1.4382,0,-1.4292,-1.4316,-1.4309,-1.4319,-1.4318,-1.4336,-1.4344,-1.432,-1.4329,-1.4331,-1.435,-1.4365,-1.4376,-1.4406,-1.4395,-1.4407,-1.4396,-1.4439,-1.4397,-1.4404,-1.4396,-1.4395,-1.4398,-1.4448,-1.4449,-1.445,-1.4451,0,-1.4397,-1.4386,-1.4399,-1.4409,-1.4419,-1.4426,-1.443,-1.444,-1.4415,-1.4428,-1.4445,-1.4453,-1.447,-1.4485,-1.4494,-1.4492,-1.4468,-1.4464,-1.4473,-1.4481,-1.4487,-1.4485,-1.4351,-1.4462,-1.4461,-1.446,-1.4459,-1.4459,-1.4475,-1.4495,-1.4493,-1.4508,-1.4509,-1.4513,-1.453,-1.4521,-1.4535,-1.4546,-1.4531,-1.4553,-1.4552,-1.4562,-1.4562,-1.4579,-1.4561,-1.4574,-1.4577,-1.4581,-1.4586,-1.4484,-1.4581,-1.458,-1.458,-1.458,-1.4579,0,-1.4579,-1.4575,-1.4589,-1.4596,-1.4608,-1.4583,-1.4586,-1.4598,-1.4617,-1.4618,-1.4629,-1.4649,-1.4664,-1.4654,-1.4666,-1.4681,-1.4671,-1.4686,-1.4684,-1.4684,-1.4602,-1.4593,-1.4694,-1.4694,-1.4694,-1.4694,-1.4694,-1.4694,-1.4634,-1.4667,-1.4656,-1.4689,-1.4685,-1.4705,-1.4709,-1.4713,-1.4714,-1.4738,-1.4749,-1.4742,-1.4739,-1.4751,-1.4763,-1.476,-1.4766,-1.4785,-1.4778,-1.4701,-1.469,-1.4679,-1.4671,-1.4787,-1.4787,-1.4859,-1.486,-1.486]},{"header":{"parameterUnit":"m.s-1","parameterCategory":1,"la1":30.2991,"la2":30.254,"lo1":-89.0895,"lo2":-89.0444,"dy":0.0017,"dx":0.0017,"nx":28,"ny":28,"refTime":"2023-10-11T03:00:00:Z","depth":0,"parameterNumber":3,"parameterNumberName":"V-component_of_WINDS"},"data":[0,0,0,0,0,0,0,0,0,0,0,0,0,0,0,0,0,0,0,0,0,0,0,0,0,0,0,0,0,0,0,0,0,0,0,0,0,0,0,0,0,0,0,0,0,0,0,0,0,0,0,0,0,0,0,0,0,0,2.0749,2.0749,0,2.0766,2.0766,2.0766,2.0771,2.0771,2.0771,2.0771,2.0786,2.0787,2.0787,0,0,0,0,0,0,0,0,0,0,0,0,0,2.0718,2.0719,2.0749,2.0749,2.0749,2.0766,2.0766,2.0766,2.0771,2.0771,2.0771,2.0771,2.0786,2.0787,2.0787,0,0,0,0,0,0,0,0,0,0,0,0,0,2.0733,2.0719,2.0749,2.0754,2.0754,2.0766,2.0766,2.0766,2.0771,2.0771,2.0771,2.0771,2.0786,2.0786,2.0787,2.0794,0,0,2.0789,2.079,0,0,0,0,0,0,0,0,2.0732,2.0734,2.0753,2.0753,2.0754,2.0766,2.0761,2.0775,2.0771,2.0765,2.0771,2.0771,2.0779,2.0781,2.0784,2.0795,2.0796,2.0789,2.079,2.079,2.079,0,0,0,0,0,0,0,2.0731,2.0733,2.0755,2.0753,2.0754,2.0754,2.0756,2.0764,2.0772,2.0765,2.0766,2.0768,2.078,2.0783,2.0784,2.0796,2.0789,2.079,2.0791,2.0791,2.0813,2.0813,0,0,0,0,0,0,2.073,2.0733,2.0755,2.0756,2.0743,2.0755,2.0757,2.0762,2.0772,2.0774,2.0768,2.0768,2.0782,2.0784,2.0785,2.0794,2.079,2.0791,2.0791,2.0813,2.0813,2.0813,0,0,0,0,0,0,2.0729,2.0732,2.0754,2.0744,2.0747,2.0756,2.0761,2.0763,2.0766,2.0774,2.0776,2.077,2.0782,2.0784,2.0792,2.0794,2.0791,2.0792,2.0812,2.0813,2.0813,2.0811,0,0,0,0,0,0,2.0728,2.0731,2.0735,2.0744,2.0748,2.0761,2.0762,2.0763,2.0768,2.0768,2.0777,2.0778,2.0782,2.0791,2.0793,2.0795,2.0792,2.0812,2.0812,2.0813,2.0811,2.0811,2.0811,0,0,0,0,0,2.0727,2.0733,2.0735,2.0737,2.0752,2.0762,2.0763,2.0769,2.0768,2.0771,2.0776,2.0778,2.0794,2.0792,2.0794,2.0796,2.0812,2.0812,2.0813,2.0811,2.0811,2.0811,0,0,0,0,0,0,2.0723,2.0734,2.0736,2.0746,2.0753,2.0762,2.0766,2.0769,2.0775,2.0775,2.0781,2.0783,2.079,2.0794,2.0791,2.0804,2.0803,2.0804,2.0801,2.0801,2.0801,2.08,2.0793,0,0,0,0,0,2.0723,2.073,2.074,2.0747,2.0751,2.0758,2.0762,2.0766,2.0773,2.0775,2.0781,2.0787,2.0793,2.0797,2.0804,2.0812,2.0813,2.0814,2.0815,2.0815,2.0815,2.0819,2.082,2.0814,2.0814,2.0814,0,0,2.0723,2.0731,2.0735,2.0747,2.0752,2.0759,2.076,2.0767,2.0772,2.0776,2.0784,2.0788,2.0796,2.0803,2.0807,2.0807,2.0817,2.0815,2.0815,2.0816,2.082,2.082,2.0821,2.0814,2.0814,2.0814,0,0,2.0727,2.0734,2.0741,2.0747,2.0755,2.076,2.0762,2.0771,2.0774,2.0782,2.0785,2.0791,2.0802,2.0807,2.0811,2.0816,2.0818,2.0818,2.0819,2.0823,2.0824,2.0824,2.0826,2.0827,2.0819,2.0819,2.0819,0,2.0727,2.0738,2.0744,2.0751,2.0756,2.076,2.0767,2.0772,2.0782,2.0785,2.0785,2.0798,2.0804,2.0812,2.0814,2.0817,2.0818,2.0817,2.0823,2.0824,2.0824,2.0826,2.0827,2.0819,2.0819,2.0819,2.0819,0,2.0736,2.0744,2.0748,2.0758,2.0764,2.077,2.0777,2.0781,2.0784,2.0789,2.0797,2.0803,2.0811,2.0813,2.0816,2.0822,2.0822,2.0822,2.0822,2.0825,2.0826,2.0827,2.0819,2.0819,2.0819,2.0819,0,0,2.0738,2.0752,2.0753,2.0758,2.0768,2.0773,2.078,2.0788,2.0792,2.0798,2.0804,2.0813,2.0813,2.0818,2.0821,2.0824,2.0828,2.0825,2.0825,2.0825,2.0835,2.0835,2.0835,2.0829,2.083,2.083,2.0835,0,2.0743,2.0756,2.0762,2.0772,2.0779,2.0783,2.0788,2.0795,2.0799,2.0805,2.0809,2.0816,2.0816,2.0819,2.0822,2.0827,2.083,2.0827,2.0834,2.0834,2.0832,2.0836,2.0836,2.084,2.0835,2.0835,2.0836,0,2.0751,2.0759,2.0769,2.0779,2.0782,2.0787,2.0794,2.08,2.0807,2.081,2.0815,2.0818,2.0824,2.0823,2.0832,2.0829,2.0832,2.0835,2.0835,2.0836,2.0835,2.0837,2.0842,2.0842,2.0837,2.0837,2.0837,0,2.0751,2.0764,2.0772,2.0776,2.0787,2.079,2.0794,2.0801,2.0806,2.0812,2.0815,2.0822,2.0825,2.083,2.0835,2.0834,2.0843,2.0842,2.0845,2.0845,2.0846,2.0846,2.0852,2.0849,2.0849,2.0849,2.0849,0,2.0756,2.0763,2.0772,2.0777,2.0784,2.079,2.0797,2.0801,2.0807,2.0813,2.0817,2.0821,2.0827,2.0833,2.0836,2.0843,2.0844,2.0846,2.0847,2.0846,2.0845,2.0848,2.0848,2.0849,2.0849,2.0849,2.0849,0,2.0757,2.0764,2.0773,2.0783,2.0785,2.079,2.0798,2.0802,2.0807,2.0814,2.0816,2.0822,2.0829,2.0834,2.0842,2.0845,2.0851,2.0852,2.0849,2.0849,2.0852,2.0851,2.0858,2.086,2.0856,2.0856,2.0856,0,2.076,2.0765,2.0776,2.078,2.0785,2.0791,2.0796,2.0802,2.0806,2.0815,2.0818,2.0825,2.0831,2.0841,2.0846,2.0852,2.0853,2.0856,2.0854,2.0853,2.0853,2.0853,2.0853,2.0856,2.0856,2.0856,2.0856,0,2.0765,2.0768,2.0775,2.0783,2.0788,2.0795,2.0801,2.0804,2.0811,2.0816,2.0823,2.0827,2.0836,2.0843,2.0849,2.0853,2.0855,2.0856,2.0857,2.0856,2.0853,2.0854,2.0849,2.0856,2.0856,2.0856,2.0856,2.0856,2.0766,2.0771,2.0779,2.0787,2.0792,2.0798,2.0803,2.0808,2.0814,2.0822,2.0825,2.0832,2.0839,2.0848,2.0852,2.0857,2.0857,2.0859,2.0859,2.0859,2.0859,2.0853,2.0859,2.0859,2.0859,2.0859,2.0859,0,2.0771,2.0776,2.0783,2.0792,2.0798,2.08,2.0807,2.0812,2.0818,2.0824,2.083,2.0838,2.0844,2.085,2.0857,2.086,2.0861,2.0861,2.0861,2.0862,2.0859,2.0857,2.086,2.086,2.086,2.086,2.086,2.086,2.0774,2.0782,2.0786,2.0796,2.0801,2.0809,2.0813,2.0818,2.0823,2.0832,2.0837,2.0841,2.0847,2.0854,2.086,2.0861,2.0863,2.0863,2.0865,2.0862,2.0862,2.0862,2.086,2.0864,2.0864,2.0868,2.0868,2.0868]}]]